When you browse on this site, cookies collect data to enhance your experience and personalize the content and advertising you see.
Visit our Privacy Policy to learn more. By continuing to use the site, you agree to this use of cookies and data.
  • In Hungary
  • List of Countries
  • For 7 days
  • Water Temperature
  • Satellite Maps
  • Weather Map
  • News
  • Weather Widgets
  • user-avatar
    Login

    Hourly Weather Swierczyna

    Today, 20 May, Monday

    Time Temperature Precipitation Wind Pressure Humidity
    00:00 +13°C° 0 mm 3 mps 730 mmHg 93%
    01:00 +13°C° 0 mm 3 mps 729 mmHg 93%
    02:00 +13°C° 0 mm 3 mps 729 mmHg 94%
    03:00 +13°C° 0 mm 3 mps 728 mmHg 95%
    04:00 +13°C° 0 mm 3 mps 728 mmHg 96%
    05:00 +14°C° 0 mm 4 mps 728 mmHg 91%
    06:00 +16°C° 0 mm 5 mps 728 mmHg 87%
    07:00 +17°C° 0 mm 6 mps 728 mmHg 82%
    08:00 +20°C° 0 mm 6 mps 729 mmHg 76%
    09:00 +21°C° 0 mm 6 mps 729 mmHg 70%
    10:00 +23°C° 0 mm 6 mps 729 mmHg 64%
    11:00 +23°C° 0 mm 6 mps 729 mmHg 61%
    12:00 +23°C° 0 mm 6 mps 729 mmHg 58%
    13:00 +25°C° 0 mm 5 mps 729 mmHg 55%
    14:00 +25°C° 0 mm 5 mps 729 mmHg 56%
    15:00 +23°C° 0 mm 5 mps 729 mmHg 58%
    16:00 +23°C° 0 mm 5 mps 729 mmHg 60%
    17:00 +21°C° 0 mm 5 mps 729 mmHg 67%
    18:00 +20°C° 0 mm 4 mps 729 mmHg 74%
    19:00 +18°C° 0 mm 3 mps 729 mmHg 81%
    20:00 +17°C° 0 mm 3 mps 729 mmHg 81%
    21:00 +16°C° 0 mm 2 mps 729 mmHg 82%
    22:00 +15°C° 0 mm 2 mps 729 mmHg 82%
    23:00 +15°C° 0 mm 2 mps 729 mmHg 81%

    Tomorrow, 21 May, Tuesday

    Time Temperature Precipitation Wind Pressure Humidity
    00:00 +15°C° 0 mm 2 mps 729 mmHg 80%
    01:00 +15°C° 0 mm 2 mps 729 mmHg 79%
    02:00 +15°C° 0 mm 2 mps 729 mmHg 79%
    03:00 +15°C° 0 mm 2 mps 729 mmHg 80%
    04:00 +15°C° 0 mm 2 mps 729 mmHg 80%
    05:00 +15°C° 0.1 mm 1 mps 729 mmHg 82%
    06:00 +15°C° 0.1 mm 1 mps 729 mmHg 83%
    07:00 +15°C° 0.1 mm 1 mps 729 mmHg 85%
    08:00 +16°C° 0.2 mm 1 mps 729 mmHg 83%
    09:00 +16°C° 0.2 mm 1 mps 729 mmHg 81%
    10:00 +18°C° 0.2 mm 1 mps 729 mmHg 79%
    11:00 +18°C° 0.8 mm 1 mps 729 mmHg 82%
    12:00 +16°C° 0.8 mm 2 mps 729 mmHg 85%
    13:00 +16°C° 0.8 mm 2 mps 729 mmHg 88%
    14:00 +16°C° 0.6 mm 2 mps 729 mmHg 89%
    15:00 +16°C° 0.6 mm 3 mps 729 mmHg 89%
    16:00 +16°C° 0.6 mm 3 mps 729 mmHg 90%
    17:00 +14°C° 0.8 mm 3 mps 729 mmHg 91%
    18:00 +14°C° 0.8 mm 3 mps 729 mmHg 91%
    19:00 +13°C° 0.8 mm 3 mps 729 mmHg 92%
    20:00 +13°C° 0.3 mm 3 mps 729 mmHg 92%
    21:00 +13°C° 0.3 mm 3 mps 730 mmHg 92%
    22:00 +13°C° 0.3 mm 3 mps 730 mmHg 92%
    23:00 +13°C° 0.2 mm 2 mps 730 mmHg 92%

    Day after tomorrow, 22 May, Wednesday

    Time Temperature Precipitation Wind Pressure Humidity
    00:00 +13°C° 0.2 mm 2 mps 730 mmHg 92%
    01:00 +13°C° 0.2 mm 2 mps 730 mmHg 92%
    02:00 +13°C° 0 mm 2 mps 730 mmHg 92%
    03:00 +12°C° 0 mm 2 mps 730 mmHg 92%
    04:00 +12°C° 0 mm 2 mps 730 mmHg 92%
    05:00 +12°C° 0 mm 3 mps 730 mmHg 90%
    06:00 +13°C° 0 mm 4 mps 730 mmHg 87%
    07:00 +14°C° 0 mm 4 mps 730 mmHg 84%
    08:00 +15°C° 0.2 mm 5 mps 730 mmHg 80%
    09:00 +16°C° 0.2 mm 5 mps 730 mmHg 77%
    10:00 +17°C° 0.2 mm 5 mps 730 mmHg 73%
    11:00 +17°C° 0.7 mm 5 mps 730 mmHg 77%
    12:00 +16°C° 0.7 mm 6 mps 730 mmHg 80%
    13:00 +15°C° 0.7 mm 6 mps 731 mmHg 83%
    14:00 +15°C° 0.3 mm 5 mps 731 mmHg 85%
    15:00 +14°C° 0.3 mm 5 mps 731 mmHg 88%
    16:00 +14°C° 0.3 mm 5 mps 731 mmHg 90%
    17:00 +14°C° 0.5 mm 5 mps 731 mmHg 91%
    18:00 +13°C° 0.5 mm 6 mps 731 mmHg 92%
    19:00 +13°C° 0.5 mm 6 mps 731 mmHg 92%
    20:00 +11°C° 0.1 mm 6 mps 731 mmHg 93%
    21:00 +11°C° 0.1 mm 6 mps 732 mmHg 93%
    22:00 +11°C° 0.1 mm 6 mps 732 mmHg 93%
    23:00 +11°C° 0.2 mm 6 mps 732 mmHg 93%

    23 May, Thursday

    Time Temperature Precipitation Wind Pressure Humidity
    00:00 +10°C° 0.2 mm 6 mps 732 mmHg 93%
    01:00 +10°C° 0.2 mm 7 mps 732 mmHg 92%
    02:00 +10°C° 2 mm 7 mps 732 mmHg 93%
    03:00 +10°C° 2 mm 6 mps 732 mmHg 94%
    04:00 +11°C° 2 mm 6 mps 732 mmHg 95%
    05:00 +11°C° 1.3 mm 6 mps 733 mmHg 94%
    06:00 +11°C° 1.3 mm 7 mps 733 mmHg 94%
    07:00 +11°C° 1.3 mm 7 mps 733 mmHg 93%
    08:00 +11°C° 0.3 mm 7 mps 734 mmHg 93%
    09:00 +10°C° 0.3 mm 8 mps 734 mmHg 92%
    10:00 +10°C° 0.3 mm 8 mps 735 mmHg 91%
    11:00 +10°C° 0.3 mm 8 mps 735 mmHg 91%
    12:00 +9°C° 0.3 mm 8 mps 735 mmHg 90%
    13:00 +9°C° 0.3 mm 8 mps 736 mmHg 90%
    14:00 +9°C° 0.3 mm 7 mps 736 mmHg 90%
    15:00 +8°C° 0.3 mm 7 mps 736 mmHg 90%
    16:00 +8°C° 0.3 mm 7 mps 736 mmHg 90%
    17:00 +8°C° 0.2 mm 6 mps 736 mmHg 90%
    18:00 +8°C° 0.2 mm 5 mps 736 mmHg 89%
    19:00 +8°C° 0.2 mm 4 mps 736 mmHg 89%
    20:00 +8°C° 0.1 mm 4 mps 737 mmHg 89%
    21:00 +8°C° 0.1 mm 4 mps 737 mmHg 89%
    22:00 +10°C° 0.1 mm 4 mps 737 mmHg 90%
    23:00 +8°C° 0 mm 4 mps 737 mmHg 91%

    24 May, Friday

    Time Temperature Precipitation Wind Pressure Humidity
    00:00 +8°C° 0 mm 4 mps 737 mmHg 91%
    01:00 +8°C° 0 mm 4 mps 737 mmHg 92%
    02:00 +8°C° 0 mm 3 mps 737 mmHg 92%
    03:00 +8°C° 0 mm 3 mps 736 mmHg 93%
    04:00 +8°C° 0 mm 3 mps 736 mmHg 93%
    05:00 +8°C° 0 mm 3 mps 736 mmHg 89%
    06:00 +9°C° 0 mm 3 mps 736 mmHg 86%
    07:00 +10°C° 0 mm 3 mps 736 mmHg 83%
    08:00 +12°C° 0 mm 3 mps 736 mmHg 75%
    09:00 +13°C° 0 mm 3 mps 736 mmHg 67%
    10:00 +14°C° 0 mm 3 mps 736 mmHg 59%
    11:00 +16°C° 0 mm 3 mps 735 mmHg 56%
    12:00 +17°C° 0 mm 3 mps 735 mmHg 53%
    13:00 +18°C° 0 mm 3 mps 734 mmHg 50%
    14:00 +18°C° 0 mm 2 mps 734 mmHg 50%
    15:00 +18°C° 0 mm 2 mps 733 mmHg 51%
    16:00 +18°C° 0 mm 2 mps 733 mmHg 51%
    17:00 +18°C° 0 mm 1 mps 733 mmHg 56%
    18:00 +15°C° 0 mm 1 mps 732 mmHg 61%
    19:00 +14°C° 0 mm 1 mps 732 mmHg 66%
    20:00 +13°C° 0 mm 1 mps 732 mmHg 69%
    21:00 +11°C° 0 mm 1 mps 732 mmHg 71%
    22:00 +10°C° 0 mm 1 mps 732 mmHg 74%
    23:00 +9°C° 0 mm 0 mps 732 mmHg 76%

    25 May, Saturday

    Time Temperature Precipitation Wind Pressure Humidity
    00:00 +9°C° 0 mm 0 mps 732 mmHg 79%
    01:00 +8°C° 0 mm 0 mps 732 mmHg 82%
    02:00 +8°C° 0 mm 0 mps 732 mmHg 82%
    03:00 +8°C° 0 mm 0 mps 731 mmHg 83%
    04:00 +8°C° 0 mm 0 mps 731 mmHg 83%
    05:00 +9°C° 0 mm 0 mps 731 mmHg 79%
    06:00 +11°C° 0 mm 0 mps 731 mmHg 74%
    07:00 +13°C° 0 mm 0 mps 732 mmHg 70%
    08:00 +15°C° 0 mm 0 mps 732 mmHg 66%
    09:00 +16°C° 0 mm 0 mps 732 mmHg 62%
    10:00 +18°C° 0 mm 0 mps 732 mmHg 58%
    11:00 +18°C° 0 mm 0 mps 731 mmHg 55%
    12:00 +19°C° 0 mm 0 mps 731 mmHg 52%
    13:00 +20°C° 0 mm 0 mps 731 mmHg 49%
    14:00 +22°C° 0 mm 1 mps 731 mmHg 49%
    15:00 +22°C° 0 mm 1 mps 731 mmHg 49%
    16:00 +22°C° 0 mm 1 mps 731 mmHg 49%
    17:00 +20°C° 0 mm 1 mps 731 mmHg 54%
    18:00 +19°C° 0 mm 1 mps 731 mmHg 59%
    19:00 +16°C° 0 mm 1 mps 731 mmHg 65%
    20:00 +15°C° 0 mm 1 mps 732 mmHg 70%
    21:00 +14°C° 0 mm 1 mps 732 mmHg 74%
    22:00 +13°C° 0 mm 1 mps 732 mmHg 79%
    23:00 +12°C° 0 mm 1 mps 732 mmHg 80%
    Show more